Spokane Fairchild, WA
on Wednesday, January 2, 2013

Wednesday
Previous Day Next Day
Daily Summary
 ActualAverage (KGEG)Record (KGEG)
Temperature
Mean Temperature °F 27°F  
Max Temperature 24°F 32°F 49°F (1939)
Min Temperature 14°F 23°F -6°F (1978)
Degree Days
Heating Degree Days 46 38  
Month to date heating degree days 76  
Since 1 July heating degree days 2910  
Cooling Degree Days 0 0  
Month to date cooling degree days 0  
Year to date cooling degree days 0  
Moisture
Dew Point 21°F   
Average Humidity 100    
Maximum Humidity 100    
Minimum Humidity 93    
Precipitation
Precipitation 0.00 in 0.07 in 0.61 in (1951)
Month to date precipitation 0.13  
Year to date precipitation 0.13  
Snow
Snow 0.00 in 0.50 in 7.00 in (1899)
Month to date snowfall 1.0  
Since 1 July snowfall 23.1  
Snow Depth 7.00 in   
Wind
Wind Speed 4 mph   
Max Wind Speed 8 mph   
Max Gust Speed mph   
Visibility 10 miles   
Events Snow   

Key: T is trace of precipitation, MM is missing value
Source: NWS Daily Summary
Time(PST)TemperatureDew PointHumidity Pressure Visibility Wind DirectionWind SpeedGust SpeedPrecipitationEvents Conditions
12:09 AM 21.2°F 21.2°F 100% 30.53 in 10.0 miles NNW 2.3 mph - N/A Snow Light Snow
12:29 AM 21.2°F 21.2°F 100% 30.52 in 10.0 miles NNW 3.5 mph - N/A   Overcast
12:46 AM 21.2°F 21.2°F 100% 30.51 in 10.0 miles WNW 1.2 mph - N/A Snow Light Snow
12:58 AM 21.0°F 21.0°F 100% 30.63 in 10.0 miles NNW 3.5 mph - 0.00 in Snow Light Snow
1:02 AM 21.2°F 21.2°F 100% 30.51 in 10.0 miles NNE 4.6 mph - N/A   Overcast
1:12 AM 21.2°F 21.2°F 100% 30.51 in 10.0 miles North 5.8 mph - N/A Snow Light Snow
1:41 AM 21.2°F 21.2°F 100% 30.52 in 10.0 miles North 3.5 mph - N/A   Overcast
1:51 AM 21.2°F 21.2°F 100% 30.52 in 10.0 miles NNE 4.6 mph - N/A Snow Light Snow
1:58 AM 21.0°F 21.0°F 100% 30.64 in 10.0 miles North 5.8 mph - 0.00 in Snow Light Snow
2:00 AM 21.2°F 21.2°F 100% 30.52 in 10.0 miles NNE 3.5 mph - N/A   Overcast
2:46 AM 21.2°F 21.2°F 100% 30.52 in 10.0 miles NNE 2.3 mph - N/A Snow Light Snow
2:58 AM 21.0°F 21.0°F 100% 30.64 in 10.0 miles NNE 4.6 mph - 0.00 in Snow Light Snow
3:06 AM 21.2°F 21.2°F 100% 30.52 in 10.0 miles NNE 5.8 mph - N/A   Overcast
3:58 AM 21.0°F 21.0°F 100% 30.64 in 10.0 miles NNE 4.6 mph - 0.00 in   Overcast
4:58 AM 21.0°F 21.0°F 100% 30.62 in 10.0 miles NNE 4.6 mph - N/A   Overcast
5:58 AM 21.2°F 21.2°F 100% 30.61 in 10.0 miles North 4.6 mph - N/A   Overcast
6:50 AM 21.2°F 21.2°F 100% 30.49 in 10.0 miles North 4.6 mph - N/A   Overcast
6:51 AM 21.2°F 21.2°F 100% 30.49 in 10.0 miles North 4.6 mph - N/A Snow Light Snow
6:58 AM 21.0°F 21.0°F 100% 30.61 in 10.0 miles North 3.5 mph - 0.00 in Snow Light Snow
7:00 AM 21.2°F 21.2°F 100% 30.49 in 10.0 miles NNE 4.6 mph - N/A   Overcast
7:58 AM 21.4°F 21.4°F 100% 30.61 in 10.0 miles North 4.6 mph - 0.00 in   Overcast
8:58 AM 21.7°F 21.7°F 100% 30.62 in 9.0 miles North 4.6 mph - N/A   Overcast
9:25 AM 23.0°F 23.0°F 100% 30.50 in 10.0 miles NNE 3.5 mph - N/A Snow Light Snow
9:35 AM 23.0°F 23.0°F 100% 30.50 in 10.0 miles NNE 3.5 mph - N/A   Overcast
9:58 AM 22.5°F 23.0°F 100% 30.62 in 10.0 miles NE 5.8 mph - N/A   Overcast
10:15 AM 23.0°F 23.0°F 100% 30.51 in 10.0 miles NE 5.8 mph - N/A   Overcast
10:45 AM 23.0°F 23.0°F 100% 30.51 in 10.0 miles NE 3.5 mph - N/A   Overcast
10:58 AM 22.8°F 22.8°F 100% 30.62 in 10.0 miles NE 1.2 mph - 0.00 in   Overcast
11:58 AM 23.9°F 23.9°F 100% 30.61 in 10.0 miles NNE 4.6 mph - N/A   Overcast
12:19 PM 24.8°F 24.8°F 100% 30.48 in 10.0 miles NE 5.8 mph - N/A   Overcast
12:51 PM 24.8°F 23.0°F 93% 30.47 in 10.0 miles ENE 3.5 mph - N/A   Overcast
12:54 PM 24.8°F 23.0°F 93% 30.47 in 10.0 miles NE 3.5 mph - N/A   Overcast
12:58 PM 24.3°F 23.9°F 99% 30.58 in 10.0 miles NNE 3.5 mph - 0.00 in   Overcast
1:03 PM 24.8°F 23.0°F 93% 30.47 in 10.0 miles NNE 2.3 mph - N/A   Overcast
1:07 PM 24.8°F 24.8°F 100% 30.47 in 10.0 miles NNE 2.3 mph - N/A   Overcast
1:21 PM 24.8°F 23.0°F 93% 30.47 in 10.0 miles ENE 3.5 mph - N/A   Overcast
1:58 PM 24.3°F 24.1°F 99% 30.58 in 10.0 miles NNE 5.8 mph - 0.00 in   Overcast
2:47 PM 24.8°F 24.8°F 100% 30.47 in 10.0 miles NNE 5.8 mph - N/A   Overcast
2:49 PM 24.8°F 24.8°F 100% 30.47 in 10.0 miles NNE 6.9 mph - N/A   Overcast
2:58 PM 24.3°F 24.3°F 100% 30.58 in 10.0 miles NNE 5.8 mph - 0.00 in   Overcast
3:10 PM 24.8°F 24.8°F 100% 30.47 in 10.0 miles NE 6.9 mph - N/A   Overcast
3:19 PM 24.8°F 24.8°F 100% 30.47 in 10.0 miles NE 6.9 mph - N/A   Overcast
3:58 PM 24.3°F 24.3°F 100% 30.58 in 10.0 miles NNE 6.9 mph - 0.00 in   Overcast
4:58 PM 23.5°F 23.5°F 100% 30.58 in 10.0 miles North 5.8 mph - N/A   Overcast
5:19 PM 21.2°F 21.2°F 100% 30.45 in 10.0 miles North 5.8 mph - N/A   Mostly Cloudy
5:24 PM 21.2°F 21.2°F 100% 30.46 in 10.0 miles North 5.8 mph - N/A   Scattered Clouds
5:40 PM 21.2°F 21.2°F 100% 30.45 in 10.0 miles North 5.8 mph - N/A   Clear
5:58 PM 21.2°F 21.2°F 100% 30.57 in 10.0 miles North 5.8 mph - 0.00 in   Clear
6:55 PM 19.4°F 19.4°F 100% 30.44 in 10.0 miles North 5.8 mph - N/A Snow Light Snow
6:58 PM 19.9°F 19.9°F 100% 30.56 in 10.0 miles North 5.8 mph - 0.00 in Snow Light Snow
7:13 PM 19.4°F 19.4°F 100% 30.44 in 10.0 miles North 6.9 mph - N/A   Clear
7:20 PM 19.4°F 19.4°F 100% 30.44 in 10.0 miles North 5.8 mph - N/A Snow Light Snow
7:30 PM 19.4°F 19.4°F 100% 30.43 in 10.0 miles North 6.9 mph - N/A   Clear
7:38 PM 19.4°F 19.4°F 100% 30.43 in 10.0 miles North 8.1 mph - N/A Snow Light Snow
7:58 PM 18.1°F 18.1°F 100% 30.56 in 10.0 miles North 6.9 mph - 0.00 in Snow Light Snow
7:59 PM 17.6°F 17.6°F 100% 30.43 in 10.0 miles North 8.1 mph - N/A   Clear
8:58 PM 17.2°F 17.2°F 100% 30.55 in 10.0 miles North 3.5 mph - 0.00 in   Clear
9:23 PM 17.6°F 17.6°F 100% 30.42 in 2.5 miles Variable 3.5 mph - N/A   Clear
9:28 PM 17.6°F 17.6°F 100% 30.42 in 2.0 miles NNE 3.5 mph - N/A   Clear
9:33 PM 17.6°F 17.6°F 100% 30.41 in 6.0 miles NNE 4.6 mph - N/A   Clear
9:58 PM 15.8°F 15.8°F 100% 30.55 in 10.0 miles NNE 4.6 mph - N/A   Clear
10:58 PM 17.2°F 17.2°F 100% 30.53 in 10.0 miles NNE 6.9 mph - N/A   Clear
11:23 PM 14.0°F 14.0°F 100% 30.40 in 10.0 miles NNE 6.9 mph - N/A Snow Light Snow
11:44 PM 15.8°F 15.8°F 100% 30.39 in 10.0 miles North 6.9 mph - N/A   Clear
11:58 PM 16.0°F 16.0°F 100% 30.52 in 10.0 miles North 5.8 mph - 0.00 in   Clear
Moon Phase
Jan. 02 Jan. 04 Jan. 11 Jan. 18 Jan. 26
Sunrise:07:38 AM (PST) Moon Rise:10:14 PM (PST)1/2
Sunset:04:11 PM (PST) Moon Set:09:59 AM (PST)1/2

Copyright © 2014 The Weather Underground, Inc.